User: anonymous   Login
Location: Unspecified
(43.4680°N, 87.1740°E)
Time: 14:01:47
(UTC+00:00)
Language:

Helios 1B rocket - Orbit

View from above orbital plane
View from above orbital plane
View from above satellite
View from above satellite

Ground track
Ground track

The orbit data is extracted from the following two-line orbital elements,

1 25979U 99064C   21169.07210561 -.00000046  00000-0  15159-5 0  9998
2 25979  98.1654 108.1591 0006553 152.5084 207.6484 14.96363861168717
Epoch (UTC): 18 June 2021 01:43:49
Eccentricity: 0.0006553
inclination: 98.1654°
perigee height: 573 km
apogee height: 583 km
right ascension of ascending node: 108.1591°
argument of perigee: 152.5084°
revolutions per day: 14.96363861
mean anomaly at epoch: 207.6484°
orbit number at epoch: 16871

The dashed part of the orbit path shows where the satellite is in the earth's shadow,  

DLR